Flag for U.S.A. Weather past 2 weeks in Boca Raton, Florida, U.S.A.

Now
73 °F

Mostly cloudy.


Feels Like: 73 °F
Forecast: 72 / 80 °F
Wind: 17 mph from East

Location: Boca Raton Airport

Current Time: Feb 28, 2015 at 1:13:04 AM

Latest Report: Feb 27, 2015 at 10:47 PM


Visibility: 10 mi

Pressure: 30.19 "Hg

Humidity: 83%

Dew point: 68 °F

Location of Boca RatonLocation

Historic Weather in Boca Raton — Graph

°F

Boca Raton temperature yesterday

Maximum temperature yesterday: 73 °F (at 9:52 PM)
Minimum temperature yesterday: 66 °F (at 6:53 AM)
Average temperature yesterday: 70 °F

Past Weeks' High & Low Weather Summary

 TemperatureHumidityPressure
High84 °F (Feb 24, 1:55 PM)100% (Feb 23, 6:47 AM)30.36 "Hg (Feb 23, 6:47 AM)
Low43 °F (Feb 20, 7:58 AM)18% (Feb 19, 2:55 PM)29.84 "Hg (Feb 25, 10:50 PM)
Average69 °F63%30.12 "Hg
* Reported Feb 12 10:53 PM — Feb 27 10:47 PM, Boca Raton, Weather by CustomWeather, © 2015

Note: Actual official high and low records may vary slightly from our data, if they occured in-between our weather recording intervals... More about our weather records

Advertising

Boca Raton weather history for previous 24 hours

 ConditionsComfort  
Time TempWeatherWind HumidityBarometerVisibility
10:47 PM
Fri, Feb 27
73 °FMostly cloudy.17 mph83%30.19 "Hg10 mi
9:52 PM73 °FMostly cloudy.15 mph83%30.19 "Hg10 mi
8:52 PM72 °FOvercast.18 mph88%30.17 "Hg10 mi
7:52 PM70 °FOvercast.9 mph88%30.16 "Hg10 mi
6:52 PM68 °FLow clouds.9 mph88%30.14 "Hg10 mi
5:52 PM70 °FLow clouds.14 mph83%30.13 "Hg10 mi
4:52 PM70 °FLow clouds.14 mph83%30.12 "Hg10 mi
3:53 PM68 °FLow clouds.10 mph88%30.11 "Hg10 mi
2:50 PM72 °FOvercast.8 mph78%30.11 "Hg10 mi
12:58 PM70 °FOvercast.10 mph83%30.13 "Hg10 mi
11:53 AM72 °FMostly cloudy.10 mph78%30.14 "Hg10 mi
10:53 AM70 °FLow clouds.7 mph83%30.14 "Hg10 mi
9:55 AM68 °FPartly sunny.10 mph88%30.14 "Hg10 mi
8:55 AM66 °FPartly sunny.6 mph94%30.12 "Hg9 mi
7:53 AM66 °FPartly sunny.8 mph94%30.09 "Hg8 mi
6:53 AM66 °FDrizzle. Fog.8 mph88%30.05 "Hg5 mi
Weather by CustomWeather, © 2015

See weather overviewHow to use our weather pages